Weather in Holmsk

Russia / Sakhalin District     47°02′27″N   142°02′29″E
temp.,
°C
wind,
m/s
gust,
m/s
humid.,
%
clouds,
%
prec.,
mm/h
press.,
hPa
HPBL,
m
23 january, sat
sat2323:00−11nnw5884100 1.0 10191010
02:00−11nnw6988100 0.5 1020944
05:00−11nnw6878100 0.9 10211030
08:00−10nw6870100 0.2 10221106
11:00−10wnw5669100 0.5 10231247
14:00−9wnw5661100 0.1 10251402
17:00−9wnw6763100 0.3 10241236
20:00−9wnw476792 0.0 1026609
24 january, sun
sun2423:00−11nw246576 0.0 1026564
02:00−7ssw587144 0.0 1025641
05:00−4sw7118168 0.1 1022937
08:00−8ssw488196 0.0 1024656
11:00−3wsw797798 0.6 10231152
14:00−2wsw6875100 0.3 10231150
17:000wnw7106585 0.0 1018984
20:00−6n357139 0.0 1025462
25 january, mon
mon2523:00−9e227532 0.0 1025142
02:00−10e228244 0.0 102591
05:00−12e227341 0.0 102799
08:00−14e23800 0.0 102984
11:00−10ese227948 0.0 1030109
14:00−11n45725 0.0 1032771
17:00−7n237412 0.0 1032431
20:00−10e22821 0.0 1033114
26 january, tue
tue2623:00−17ene358845 0.0 1035360
02:00−17ene238526 0.0 1035237
05:00−15ese459155 0.0 1032124
08:00−15ese5685100 0.0 1031173
11:00−16se33701 0.0 1033149
14:00−12ese346648 0.0 1030315
17:00−8ese81687100 0.6 1022411
20:00−6ese6991100 0.5 1019352
27 january, wed
wed2723:00−14ese6118899 0.0 1022343
02:00−2se61392100 2.7 1011642
05:00−9ese142284100 0.4 1012479
08:00−1sw2498100 4.1 1003219
11:00−3nw101297100 7.8 1003559
14:00−9nw12169667 0.6 1003740
17:00−7wnw101391100 1.7 10071097
20:00−8wnw131573100 0.6 10091595